GW1682 Weather Reports


Display with metric or nautical units.
time (UTC)temp
F
wind
direction
speed
MPH
gust
MPH
rain 1hr
in
rain 24hr
in
rain mn
in
humidity
%
barometer
mb
20221204181611 55 123 0.0 3.0 0.00 0.00 0.00 73 1024.7
20221204180157 55 91 0.0 5.0 0.00 0.00 0.00 73 1024.5
20221204174606 55 96 0.0 3.0 0.00 0.00 0.00 73 1024.4
20221204173020 55 122 0.0 4.0 0.00 0.00 0.00 73 1024.3
20221204171546 55 267 0.0 3.0 0.00 0.00 0.00 74 1024.3
20221204170150 55 203 0.0 5.0 0.00 0.00 0.00 74 1024.3
20221204164607 55 142 0.0 2.0 0.00 0.00 0.00 74 1024.2
20221204163112 55 294 0.0 5.0 0.00 0.00 0.00 75 1024.3
20221204161604 55 339 0.0 2.0 0.00 0.00 0.00 74 1024.1
20221204160111 55 278 0.0 4.0 0.00 0.00 0.00 74 1024.0
20221204154551 55 101 0.0 5.0 0.00 0.00 0.00 74 1023.8
20221204153152 56 338 0.0 5.0 0.00 0.00 0.00 73 1023.8
20221204151640 56 49 1.0 4.0 0.00 0.00 0.00 72 1023.8
20221204150109 56 120 0.0 6.0 0.00 0.00 0.00 72 1023.5
20221204144532 57 295 0.0 4.0 0.00 0.00 0.00 72 1023.3
20221204143153 57 34 1.0 4.0 0.00 0.00 0.00 71 1023.4
20221204141641 57 1 0.0 8.0 0.00 0.00 0.00 71 1023.2
20221204140141 58 220 0.0 11.0 0.00 0.00 0.00 70 1023.1
20221204134533 58 4 2.0 9.0 0.00 0.00 0.00 69 1023.0
20221204133107 58 255 2.0 8.0 0.00 0.00 0.00 69 1023.2
20221204131538 59 307 1.0 6.0 0.00 0.00 0.00 68 1023.0
20221204130046 59 108 2.0 7.0 0.00 0.00 0.00 68 1022.8
20221204124700 59 104 2.0 6.0 0.00 0.00 0.00 68 1023.1
20221204121538 59 328 0.0 4.0 0.00 0.00 0.00 68 1023.6
20221204120149 60 334 0.0 4.0 0.00 0.00 0.00 67 1023.8
20221204114536 60 312 0.0 5.0 0.00 0.00 0.00 65 1023.9
20221204113037 60 143 0.0 4.0 0.00 0.00 0.00 64 1024.0
20221204111547 61 120 0.0 5.0 0.00 0.00 0.00 64 1024.2
20221204110135 61 85 0.0 4.0 0.00 0.00 0.00 64 1024.5
20221204104548 60 108 1.0 5.0 0.00 0.00 0.00 65 1024.6
20221204103034 60 111 0.0 3.0 0.00 0.00 0.00 67 1024.6
20221204101657 59 309 1.0 9.0 0.00 0.00 0.00 67 1024.6
20221204100040 60 140 2.0 6.0 0.00 0.00 0.00 68 1024.7
20221204094538 59 323 0.0 4.0 0.00 0.00 0.00 68 1024.9
20221204093028 59 340 1.0 5.0 0.00 0.00 0.00 69 1024.9
20221204091628 58 357 1.0 6.0 0.00 0.00 0.00 70 1025.0
20221204090038 58 300 0.0 6.0 0.00 0.00 0.00 71 1025.0
20221204083136 58 109 0.0 2.0 0.00 0.00 0.00 72 1025.1
20221204081645 57 85 0.0 4.0 0.00 0.00 0.00 73 1025.1
20221204080150 57 82 0.0 4.0 0.00 0.00 0.00 74 1025.1
20221204074635 56 358 0.0 2.0 0.00 0.00 0.00 74 1025.0
20221204073106 55 77 0.0 4.0 0.00 0.00 0.00 78 1025.0
20221204071551 53 78 1.0 4.0 0.00 0.00 0.00 81 1025.0
20221204070141 53 94 0.0 1.0 0.00 0.00 0.00 82 1025.1
20221204064649 52 111 0.0 2.0 0.00 0.00 0.00 83 1025.0
20221204063146 51 133 0.0 1.0 0.00 0.00 0.00 83 1025.2
20221204061636 51 130 0.0 0.0 0.00 0.00 0.00 84 1025.4
20221204060130 51 130 0.0 0.0 0.00 0.00 0.00 83 1025.4
20221204054556 50 129 0.0 1.0 0.00 0.00 0.00 83 1025.3
20221204053003 51 329 0.0 1.0 0.00 0.00 0.00 83 1025.2
20221204051548 51 120 0.0 0.0 0.00 0.00 0.00 82 1025.0
20221204050042 51 86 0.0 1.0 0.00 0.00 0.00 82 1024.7
20221204044623 50 91 0.0 1.0 0.00 0.00 0.00 82 1024.7
20221204043132 51 90 0.0 1.0 0.00 0.00 0.00 80 1024.6
20221204041604 51 129 0.0 2.0 0.00 0.00 0.00 80 1024.2
20221204040132 50 116 0.0 0.0 0.00 0.00 0.00 80 1024.2
20221204034626 50 131 0.0 0.0 0.00 0.00 0.00 80 1024.1
20221204033109 50 131 0.0 0.0 0.00 0.00 0.00 80 1024.0
20221204031634 50 101 0.0 0.0 0.00 0.00 0.00 80 1024.1
20221204030045 50 101 0.0 0.0 0.00 0.00 0.00 79 1023.9
20221204024545 51 101 0.0 0.0 0.00 0.00 0.00 78 1023.9
20221204023055 51 101 0.0 0.0 0.00 0.00 0.00 77 1023.9
20221204021642 51 37 0.0 2.0 0.00 0.00 0.00 77 1023.9
20221204013053 52 84 0.0 3.0 0.00 0.00 0.00 78 1024.1
20221204011621 52 110 0.0 2.0 0.00 0.00 0.00 79 1024.2
20221204010046 52 82 0.0 3.0 0.00 0.00 0.00 79 1024.3
20221204004547 52 114 0.0 1.0 0.00 0.00 0.00 80 1024.3
20221204003134 52 115 0.0 3.0 0.00 0.00 0.00 80 1024.4
20221204001520 52 38 0.0 1.0 0.00 0.00 0.00 80 1024.3
20221204000042 52 113 0.0 2.0 0.00 0.00 0.00 80 1024.2
20221203234544 52 103 0.0 6.0 0.00 0.00 0.00 81 1024.3
20221203233045 52 120 0.0 2.0 0.00 0.00 0.00 80 1024.2
20221203231551 52 148 0.0 1.0 0.00 0.00 0.00 80 1024.3
20221203230036 53 30 0.0 6.0 0.00 0.00 0.00 80 1024.2
20221203224539 53 76 0.0 6.0 0.00 0.00 0.00 79 1024.3
20221203223127 53 319 1.0 4.0 0.00 0.00 0.00 79 1024.3
20221203221635 52 354 1.0 4.0 0.00 0.00 0.00 79 1024.4
20221203214623 52 323 0.0 4.0 0.00 0.00 0.00 80 1024.2
20221203213034 51 313 0.0 0.0 0.00 0.00 0.00 80 1024.4
20221203211609 51 47 0.0 1.0 0.00 0.00 0.00 80 1024.3
20221203204548 52 74 0.0 0.0 0.00 0.00 0.00 80 1024.1
20221203203132 52 74 0.0 1.0 0.00 0.00 0.00 79 1024.3
20221203201542 53 108 0.0 2.0 0.00 0.00 0.00 79 1024.2
20221203200131 53 81 0.0 0.0 0.00 0.00 0.00 79 1024.2
20221203193027 53 142 0.0 1.0 0.00 0.00 0.00 79 1024.1
20221203190122 53 321 0.0 0.0 0.00 0.00 0.00 78 1024.2
20221203184638 53 12 0.0 0.0 0.00 0.00 0.00 78 1023.9
20221203183050 54 329 0.0 1.0 0.00 0.00 0.00 77 1023.9